Weather History for LIRN - March, 2013

Change the Weather History Date:

Thursday, March 21, 2013

  Actual Average Record
Temperature  
Mean Temperature 55 °F -  
Max Temperature 62 °F 63 °F - ()
Min Temperature 48 °F 46 °F - ()
Degree Days  
Heating Degree Days 10    
Growing Degree Days 5 (Base 50)    
Moisture  
Dew Point 46 °F    
Average Humidity 73    
Maximum Humidity 100    
Minimum Humidity 42    
Precipitation  
Precipitation 0.00 in 0.10 in - ()
Sea Level Pressure  
Sea Level Pressure 29.78 in    
Wind  
Wind Speed 8 mph ()    
Max Wind Speed 23 mph    
Max Gust Speed 32 mph    
Visibility 5.2 miles    
Events      
T = Trace of Precipitation, MM = Missing Value Source: Averaged Metar Reports

Daily Weather History Graph

Daily Weather History Graph

Search for Another Location

Airport or City:

Trip Planner

Search our weather history database for the weather conditions in past years. The results will help you decide how hot, cold, wet, or windy it might be!

Date:

Astronomy

Mar. 21, 2013 Rise Set
Actual Time 6:04 AM CET 6:16 PM CET
Civil Twilight 5:37 AM CET 6:43 PM CET
Nautical Twilight 5:05 AM CET 7:15 PM CET
Astronomical Twilight 4:32 AM CET 7:48 PM CET
Moon 12:27 PM CET (3/21) 2:16 AM CET (3/21)
Length of Visible Light 13h 06m
Length of Day
12h 11m
Waxing Gibbous, 66% of the Moon is Illuminated
Mar 21
Waxing Gibbous
Mar 27
Full
Apr 3
Last Quarter
Apr 10
New
Apr 18
First Quarter

Hourly Weather History & Observations

Time (CET) Temp. Dew Point Humidity Pressure Visibility Wind Dir Wind Speed Gust Speed Precip Events Conditions
12:20 AM 50.0 °F 48.2 °F 94% 29.68 in 1.2 mi ENE 3.5 mph - N/A   Drizzle
12:50 AM 50.0 °F 50.0 °F 100% 29.65 in 0.6 mi Variable 1.2 mph - N/A   Drizzle
2:50 AM 51.8 °F 50.0 °F 94% 29.62 in 5.0 mi Variable 2.3 mph - N/A   Mostly Cloudy
3:20 AM 51.8 °F 50.0 °F 94% 29.62 in 3.7 mi WNW 4.6 mph - N/A   Mostly Cloudy
3:50 AM 51.8 °F 50.0 °F 94% 29.62 in 3.7 mi WNW 6.9 mph - N/A   Mostly Cloudy
4:20 AM 51.8 °F 50.0 °F 94% 29.65 in 5.0 mi Variable 2.3 mph - N/A   Scattered Clouds
4:50 AM 51.8 °F 48.2 °F 88% 29.65 in 6.2 mi WSW 5.8 mph - N/A   Scattered Clouds
5:20 AM 51.8 °F 50.0 °F 94% 29.65 in 6.2 mi WSW 4.6 mph - N/A   Mostly Cloudy
5:50 AM 53.6 °F 50.0 °F 88% 29.68 in 6.2 mi West 6.9 mph - N/A   Mostly Cloudy
6:20 AM 53.6 °F 50.0 °F 88% 29.68 in 6.2 mi WNW 5.8 mph - N/A   Mostly Cloudy
6:50 AM 53.6 °F 50.0 °F 88% 29.68 in 3.7 mi West 6.9 mph - N/A   Mostly Cloudy
7:20 AM 53.6 °F 50.0 °F 88% 29.71 in 3.7 mi WNW 6.9 mph - N/A   Mostly Cloudy
7:50 AM 53.6 °F 50.0 °F 88% 29.71 in 4.3 mi WNW 5.8 mph - N/A   Mostly Cloudy
8:20 AM 53.6 °F 50.0 °F 88% 29.74 in 6.2 mi WNW 9.2 mph - N/A   Scattered Clouds
8:50 AM 53.6 °F 48.2 °F 82% 29.74 in 6.2 mi WNW 6.9 mph - N/A   Scattered Clouds
9:20 AM 57.2 °F 48.2 °F 72% 29.74 in 6.2 mi WNW 9.2 mph - N/A   Scattered Clouds
9:50 AM 57.2 °F 48.2 °F 72% 29.74 in 6.2 mi WNW 11.5 mph - N/A   Scattered Clouds
10:20 AM 57.2 °F 44.6 °F 63% 29.77 in 6.2 mi WNW 10.4 mph - N/A   Partly Cloudy
10:50 AM 59.0 °F 46.4 °F 63% 29.77 in 6.2 mi West 18.4 mph - N/A   Partly Cloudy
11:50 AM 59.0 °F 42.8 °F 55% 29.77 in - West 19.6 mph - N/A   Clear
12:20 PM 59.0 °F 41.0 °F 51% 29.77 in - West 23.0 mph - N/A   Clear
12:50 PM 60.8 °F 39.2 °F 45% 29.77 in - West 19.6 mph - N/A   Clear
1:20 PM 60.8 °F 37.4 °F 42% 29.77 in - WNW 20.7 mph 32.2 mph N/A   Clear
1:50 PM 60.8 °F 37.4 °F 42% 29.77 in - West 20.7 mph - N/A   Clear
2:20 PM 60.8 °F 39.2 °F 45% 29.77 in - West 21.9 mph - N/A   Clear
2:50 PM 62.6 °F 44.6 °F 52% 29.77 in 6.2 mi West 17.3 mph 28.8 mph N/A   Partly Cloudy
3:20 PM 60.8 °F 44.6 °F 55% 29.80 in 6.2 mi West 20.7 mph - N/A   Partly Cloudy
3:50 PM 60.8 °F 42.8 °F 52% 29.80 in 6.2 mi West 18.4 mph - N/A   Partly Cloudy
4:20 PM 60.8 °F 42.8 °F 52% 29.80 in 6.2 mi West 18.4 mph - N/A   Partly Cloudy
4:50 PM 59.0 °F 44.6 °F 59% 29.80 in 6.2 mi West 19.6 mph - N/A   Partly Cloudy
5:50 PM 57.2 °F 46.4 °F 67% 29.83 in 6.2 mi West 17.3 mph - N/A   Partly Cloudy
6:20 PM 57.2 °F 46.4 °F 67% 29.83 in 6.2 mi West 17.3 mph - N/A   Partly Cloudy
6:50 PM 57.2 °F 46.4 °F 67% 29.86 in - West 15.0 mph - N/A   Clear
7:20 PM 55.4 °F 46.4 °F 72% 29.89 in - WNW 11.5 mph - N/A   Clear
7:50 PM 55.4 °F 46.4 °F 72% 29.89 in - WNW 4.6 mph - N/A   Clear
8:20 PM 55.4 °F 46.4 °F 72% 29.92 in - NW 3.5 mph - N/A   Clear
8:50 PM 53.6 °F 46.4 °F 77% 29.92 in - WNW 6.9 mph - N/A   Clear
9:20 PM 53.6 °F 46.4 °F 77% 29.92 in - NNW 5.8 mph - N/A   Clear
9:50 PM 53.6 °F 46.4 °F 77% 29.92 in - Variable 2.3 mph - N/A   Clear
10:20 PM 51.8 °F 46.4 °F 82% 29.95 in - Variable 2.3 mph - N/A   Clear
10:50 PM 50.0 °F 44.6 °F 82% 29.95 in - West 3.5 mph - N/A   Clear
11:20 PM 48.2 °F 42.8 °F 82% 29.95 in - West 3.5 mph - N/A   Clear
11:50 PM 48.2 °F 41.0 °F 76% 29.95 in - SW 4.6 mph - N/A   Clear